Wetterdaten: Samstag, 11.12.2010
Datum Zeit Temp. A. Temp. A. min Temp. A. max Feuchte A. Bod.Feucht 4 Luftdruck Regen Wind Richtung Richtung Sonnenschein ET Solar Taupunkt Windchill Windben Empfang
11.12.2010 00:01 0,9 C 0,0 C 0,0 C 89 % 0 cb 1023,5 hPa 0,0 l/m 19,4 km/h (3 Bft) NW 315 0 min 0,000 mm 0 W/m -0,7 C -4,0 C 19,4 km/h (3 Bft) 0,00 %
11.12.2010 00:06 0,9 C 0,0 C 0,0 C 89 % 0 cb 1023,5 hPa 0,0 l/m 16,9 km/h (3 Bft) W-NW 285 0 min 0,000 mm 0 W/m -0,7 C -3,6 C 16,9 km/h (3 Bft) 0,00 %
11.12.2010 00:11 0,9 C 0,0 C 0,0 C 89 % 0 cb 1023,5 hPa 0,0 l/m 20,6 km/h (4 Bft) NW 320 0 min 0,000 mm 0 W/m -0,7 C -4,2 C 20,6 km/h (4 Bft) 0,00 %
11.12.2010 00:16 0,9 C 0,0 C 0,0 C 89 % 0 cb 1023,5 hPa 0,0 l/m 15,4 km/h (3 Bft) W-NW 295 0 min 0,000 mm 0 W/m -0,7 C -3,4 C 15,4 km/h (3 Bft) 0,00 %
11.12.2010 00:21 0,9 C 0,0 C 0,0 C 89 % 0 cb 1023,5 hPa 0,0 l/m 16,9 km/h (3 Bft) SW 225 0 min 0,000 mm 0 W/m -0,7 C -3,6 C 16,9 km/h (3 Bft) 0,00 %
11.12.2010 00:26 0,9 C 0,0 C 0,0 C 89 % 0 cb 1023,5 hPa 0,0 l/m 18,2 km/h (3 Bft) W 280 0 min 0,000 mm 0 W/m -0,7 C -3,8 C 18,2 km/h (3 Bft) 0,00 %
11.12.2010 00:31 0,9 C 0,0 C 0,0 C 89 % 0 cb 1023,5 hPa 0,0 l/m 19,1 km/h (3 Bft) W-SW 255 0 min 0,000 mm 0 W/m -0,7 C -4,0 C 19,1 km/h (3 Bft) 0,00 %
11.12.2010 00:36 0,9 C 0,0 C 0,0 C 89 % 0 cb 1023,5 hPa 0,0 l/m 18,8 km/h (3 Bft) NW 315 0 min 0,000 mm 0 W/m -0,7 C -3,9 C 18,8 km/h (3 Bft) 0,00 %
11.12.2010 00:41 0,9 C 0,0 C 0,0 C 89 % 0 cb 1023,5 hPa 0,0 l/m 14,5 km/h (3 Bft) W 265 0 min 0,000 mm 0 W/m -0,7 C -3,2 C 14,5 km/h (3 Bft) 0,00 %
11.12.2010 00:46 0,9 C 0,0 C 0,0 C 89 % 0 cb 1023,5 hPa 0,0 l/m 11,8 km/h (2 Bft) NW 310 0 min 0,000 mm 0 W/m -0,7 C -2,7 C 11,8 km/h (2 Bft) 0,00 %
11.12.2010 00:51 0,9 C 0,0 C 0,0 C 89 % 0 cb 1023,5 hPa 0,0 l/m 16,9 km/h (3 Bft) W-SW 245 0 min 0,000 mm 0 W/m -0,7 C -3,6 C 16,9 km/h (3 Bft) 0,00 %
11.12.2010 00:56 0,9 C 0,0 C 0,0 C 89 % 0 cb 1023,5 hPa 0,0 l/m 20,6 km/h (4 Bft) W 265 0 min 0,000 mm 0 W/m -0,7 C -4,2 C 20,6 km/h (4 Bft) 0,00 %
11.12.2010 01:01 0,9 C 0,0 C 0,0 C 89 % 0 cb 1023,5 hPa 0,0 l/m 15,1 km/h (3 Bft) N-NW 335 0 min 0,000 mm 0 W/m -0,7 C -3,3 C 15,1 km/h (3 Bft) 0,00 %
11.12.2010 01:06 0,9 C 0,0 C 0,0 C 89 % 0 cb 1023,5 hPa 0,0 l/m 15,4 km/h (3 Bft) W 280 0 min 0,000 mm 0 W/m -0,7 C -3,4 C 15,4 km/h (3 Bft) 0,00 %
11.12.2010 01:11 0,8 C 0,0 C 0,0 C 89 % 0 cb 1023,5 hPa 0,0 l/m 20,9 km/h (4 Bft) W 280 0 min 0,000 mm 0 W/m -0,8 C -4,4 C 20,9 km/h (4 Bft) 0,00 %
11.12.2010 01:16 0,9 C 0,0 C 0,0 C 89 % 0 cb 1023,5 hPa 0,0 l/m 16,3 km/h (3 Bft) W 275 0 min 0,000 mm 0 W/m -0,7 C -3,5 C 16,3 km/h (3 Bft) 0,00 %
11.12.2010 01:21 0,8 C 0,0 C 0,0 C 89 % 0 cb 1023,5 hPa 0,0 l/m 15,7 km/h (3 Bft) NW 310 0 min 0,000 mm 0 W/m -0,8 C -3,6 C 15,7 km/h (3 Bft) 0,00 %
11.12.2010 01:26 0,8 C 0,0 C 0,0 C 89 % 0 cb 1023,5 hPa 0,0 l/m 15,7 km/h (3 Bft) W-NW 295 0 min 0,000 mm 0 W/m -0,8 C -3,6 C 15,7 km/h (3 Bft) 0,00 %
11.12.2010 01:31 0,9 C 0,0 C 0,0 C 89 % 0 cb 1023,5 hPa 0,0 l/m 24,5 km/h (4 Bft) W-SW 255 0 min 0,000 mm 0 W/m -0,7 C -4,7 C 24,5 km/h (4 Bft) 0,00 %
11.12.2010 01:36 0,9 C 0,0 C 0,0 C 89 % 0 cb 1023,5 hPa 0,0 l/m 14,5 km/h (3 Bft) NW 305 0 min 0,000 mm 0 W/m -0,7 C -3,2 C 14,5 km/h (3 Bft) 0,00 %
11.12.2010 01:41 0,9 C 0,0 C 0,0 C 89 % 0 cb 1022,5 hPa 0,0 l/m 15,1 km/h (3 Bft) S-SO 150 0 min 0,000 mm 0 W/m -0,7 C -3,3 C 15,1 km/h (3 Bft) 0,00 %
11.12.2010 01:46 0,9 C 0,0 C 0,0 C 89 % 0 cb 1022,5 hPa 0,0 l/m 15,7 km/h (3 Bft) W-NW 300 0 min 0,000 mm 0 W/m -0,7 C -3,4 C 15,7 km/h (3 Bft) 0,00 %
11.12.2010 01:51 0,8 C 0,0 C 0,0 C 89 % 0 cb 1022,5 hPa 0,0 l/m 11,8 km/h (2 Bft) S 190 0 min 0,000 mm 0 W/m -0,8 C -2,8 C 11,8 km/h (2 Bft) 0,00 %
11.12.2010 01:56 0,8 C 0,0 C 0,0 C 89 % 0 cb 1022,5 hPa 0,0 l/m 15,4 km/h (3 Bft) NW 310 0 min 0,000 mm 0 W/m -0,8 C -3,5 C 15,4 km/h (3 Bft) 0,00 %
11.12.2010 02:01 0,8 C 0,0 C 0,0 C 89 % 0 cb 1022,5 hPa 0,0 l/m 11,5 km/h (2 Bft) W 265 0 min 0,000 mm 0 W/m -0,8 C -2,7 C 11,5 km/h (2 Bft) 0,00 %
11.12.2010 02:06 0,9 C 0,0 C 0,0 C 89 % 0 cb 1022,5 hPa 0,0 l/m 14,5 km/h (3 Bft) W-NW 300 0 min 0,000 mm 0 W/m -0,7 C -3,2 C 14,5 km/h (3 Bft) 0,00 %
11.12.2010 02:11 0,9 C 0,0 C 0,0 C 89 % 0 cb 1022,5 hPa 0,0 l/m 14,5 km/h (3 Bft) W 275 0 min 0,000 mm 0 W/m -0,7 C -3,2 C 14,5 km/h (3 Bft) 0,00 %
11.12.2010 02:16 0,8 C 0,0 C 0,0 C 89 % 0 cb 1022,5 hPa 0,0 l/m 10,6 km/h (2 Bft) W-SW 240 0 min 0,000 mm 0 W/m -0,8 C -2,5 C 10,6 km/h (2 Bft) 0,00 %
11.12.2010 02:21 0,8 C 0,0 C 0,0 C 89 % 0 cb 1022,5 hPa 0,0 l/m 10,9 km/h (2 Bft) W-SW 245 0 min 0,000 mm 0 W/m -0,8 C -2,6 C 10,9 km/h (2 Bft) 0,00 %
11.12.2010 02:26 0,9 C 0,0 C 0,0 C 89 % 0 cb 1022,5 hPa 0,0 l/m 17,6 km/h (3 Bft) W-SW 245 0 min 0,000 mm 0 W/m -0,7 C -3,7 C 17,6 km/h (3 Bft) 0,00 %
11.12.2010 02:31 0,8 C 0,0 C 0,0 C 89 % 0 cb 1022,5 hPa 0,0 l/m 8,8 km/h (2 Bft) S-SW 195 0 min 0,000 mm 0 W/m -0,8 C -2,0 C 8,8 km/h (2 Bft) 0,00 %
11.12.2010 02:36 0,9 C 0,0 C 0,0 C 89 % 0 cb 1022,5 hPa 0,0 l/m 11,5 km/h (2 Bft) W-NW 290 0 min 0,000 mm 0 W/m -0,7 C -2,6 C 11,5 km/h (2 Bft) 0,00 %
11.12.2010 02:41 0,8 C 0,0 C 0,0 C 89 % 0 cb 1022,5 hPa 0,0 l/m 12,7 km/h (3 Bft) SW 235 0 min 0,000 mm 0 W/m -0,8 C -3,0 C 12,7 km/h (3 Bft) 0,00 %
11.12.2010 02:46 0,9 C 0,0 C 0,0 C 89 % 0 cb 1022,5 hPa 0,0 l/m 17,6 km/h (3 Bft) O-NO 70 0 min 0,000 mm 0 W/m -0,7 C -3,7 C 17,6 km/h (3 Bft) 0,00 %
11.12.2010 02:51 0,9 C 0,0 C 0,0 C 89 % 0 cb 1022,5 hPa 0,0 l/m 17,6 km/h (3 Bft) W 275 0 min 0,000 mm 0 W/m -0,7 C -3,7 C 17,6 km/h (3 Bft) 0,00 %
11.12.2010 02:56 0,8 C 0,0 C 0,0 C 89 % 0 cb 1021,5 hPa 0,0 l/m 12,1 km/h (2 Bft) SW 215 0 min 0,000 mm 0 W/m -0,8 C -2,9 C 12,1 km/h (2 Bft) 0,00 %
11.12.2010 03:01 0,9 C 0,0 C 0,0 C 89 % 0 cb 1021,5 hPa 0,0 l/m 15,1 km/h (3 Bft) W-SW 255 0 min 0,000 mm 0 W/m -0,7 C -3,3 C 15,1 km/h (3 Bft) 0,00 %
11.12.2010 03:06 0,9 C 0,0 C 0,0 C 89 % 0 cb 1021,5 hPa 0,0 l/m 18,8 km/h (3 Bft) W-NW 300 0 min 0,000 mm 0 W/m -0,7 C -3,9 C 18,8 km/h (3 Bft) 0,00 %
11.12.2010 03:11 0,9 C 0,0 C 0,0 C 89 % 0 cb 1021,5 hPa 0,0 l/m 14,5 km/h (3 Bft) S 180 0 min 0,000 mm 0 W/m -0,7 C -3,2 C 14,5 km/h (3 Bft) 0,00 %
11.12.2010 03:16 0,9 C 0,0 C 0,0 C 89 % 0 cb 1021,5 hPa 0,0 l/m 17,2 km/h (3 Bft) W-SW 245 0 min 0,000 mm 0 W/m -0,7 C -3,7 C 17,2 km/h (3 Bft) 0,00 %
11.12.2010 03:21 0,9 C 0,0 C 0,0 C 89 % 0 cb 1021,5 hPa 0,0 l/m 11,2 km/h (2 Bft) N-NW 345 0 min 0,000 mm 0 W/m -0,7 C -2,5 C 11,2 km/h (2 Bft) 0,00 %
11.12.2010 03:26 0,9 C 0,0 C 0,0 C 89 % 0 cb 1021,5 hPa 0,0 l/m 13,3 km/h (3 Bft) W 270 0 min 0,000 mm 0 W/m -0,7 C -3,0 C 13,3 km/h (3 Bft) 0,00 %
11.12.2010 03:31 0,9 C 0,0 C 0,0 C 89 % 0 cb 1021,5 hPa 0,0 l/m 16,3 km/h (3 Bft) W 270 0 min 0,000 mm 0 W/m -0,7 C -3,5 C 16,3 km/h (3 Bft) 0,00 %
11.12.2010 03:36 0,9 C 0,0 C 0,0 C 89 % 0 cb 1021,5 hPa 0,0 l/m 12,1 km/h (2 Bft) S-SW 210 0 min 0,000 mm 0 W/m -0,7 C -2,7 C 12,1 km/h (2 Bft) 0,00 %
11.12.2010 03:41 1,0 C 0,0 C 0,0 C 89 % 0 cb 1021,5 hPa 0,0 l/m 16,9 km/h (3 Bft) N 0 0 min 0,000 mm 0 W/m -0,6 C -3,5 C 16,9 km/h (3 Bft) 0,00 %
11.12.2010 03:46 1,0 C 0,0 C 0,0 C 89 % 0 cb 1021,5 hPa 0,0 l/m 18,2 km/h (3 Bft) SW 225 0 min 0,000 mm 0 W/m -0,6 C -3,7 C 18,2 km/h (3 Bft) 0,00 %
11.12.2010 03:51 1,0 C 0,0 C 0,0 C 89 % 0 cb 1021,5 hPa 0,0 l/m 14,5 km/h (3 Bft) W 260 0 min 0,000 mm 0 W/m -0,6 C -3,1 C 14,5 km/h (3 Bft) 0,00 %
11.12.2010 03:56 1,0 C 0,0 C 0,0 C 89 % 0 cb 1021,5 hPa 0,0 l/m 11,5 km/h (2 Bft) W 270 0 min 0,000 mm 0 W/m -0,6 C -2,5 C 11,5 km/h (2 Bft) 0,00 %
11.12.2010 04:01 1,0 C 0,0 C 0,0 C 89 % 0 cb 1021,5 hPa 0,0 l/m 13,9 km/h (3 Bft) W 275 0 min 0,000 mm 0 W/m -0,6 C -3,0 C 13,9 km/h (3 Bft) 0,00 %
11.12.2010 04:06 1,1 C 0,0 C 0,0 C 89 % 0 cb 1021,5 hPa 0,0 l/m 10,6 km/h (2 Bft) W-NW 290 0 min 0,000 mm 0 W/m -0,5 C -2,1 C 10,6 km/h (2 Bft) 0,00 %
11.12.2010 04:11 1,1 C 0,0 C 0,0 C 89 % 0 cb 1021,5 hPa 0,0 l/m 12,7 km/h (3 Bft) W-NW 295 0 min 0,000 mm 0 W/m -0,5 C -2,6 C 12,7 km/h (3 Bft) 0,00 %
11.12.2010 04:16 1,0 C 0,0 C 0,0 C 89 % 0 cb 1021,5 hPa 0,0 l/m 11,8 km/h (2 Bft) NW 315 0 min 0,000 mm 0 W/m -0,6 C -2,5 C 11,8 km/h (2 Bft) 0,00 %
11.12.2010 04:21 1,1 C 0,0 C 0,0 C 89 % 0 cb 1021,5 hPa 0,0 l/m 11,8 km/h (2 Bft) W 265 0 min 0,000 mm 0 W/m -0,5 C -2,4 C 11,8 km/h (2 Bft) 0,00 %
11.12.2010 04:26 1,0 C 0,0 C 0,0 C 89 % 0 cb 1021,5 hPa 0,0 l/m 9,4 km/h (2 Bft) NW 320 0 min 0,000 mm 0 W/m -0,6 C -2,0 C 9,4 km/h (2 Bft) 0,00 %
11.12.2010 04:31 1,1 C 0,0 C 0,0 C 89 % 0 cb 1021,5 hPa 0,0 l/m 14,5 km/h (3 Bft) W-NW 290 0 min 0,000 mm 0 W/m -0,5 C -3,0 C 14,5 km/h (3 Bft) 0,00 %
11.12.2010 04:36 1,0 C 0,0 C 0,0 C 89 % 0 cb 1021,5 hPa 0,0 l/m 12,4 km/h (3 Bft) W-NW 285 0 min 0,000 mm 0 W/m -0,6 C -2,7 C 12,4 km/h (3 Bft) 0,00 %
11.12.2010 04:41 1,1 C 0,0 C 0,0 C 89 % 0 cb 1021,5 hPa 0,0 l/m 9,7 km/h (2 Bft) W-NW 285 0 min 0,000 mm 0 W/m -0,5 C -1,9 C 9,7 km/h (2 Bft) 0,00 %
11.12.2010 04:46 1,1 C 0,0 C 0,0 C 89 % 0 cb 1021,5 hPa 0,0 l/m 10,3 km/h (2 Bft) NW 320 0 min 0,000 mm 0 W/m -0,5 C -2,1 C 10,3 km/h (2 Bft) 0,00 %
11.12.2010 04:51 1,1 C 0,0 C 0,0 C 89 % 0 cb 1021,5 hPa 0,0 l/m 10,0 km/h (2 Bft) NW 315 0 min 0,000 mm 0 W/m -0,5 C -2,0 C 10,0 km/h (2 Bft) 0,00 %
11.12.2010 04:56 1,1 C 0,0 C 0,0 C 89 % 0 cb 1021,5 hPa 0,0 l/m 12,4 km/h (3 Bft) W-NW 285 0 min 0,000 mm 0 W/m -0,5 C -2,6 C 12,4 km/h (3 Bft) 0,00 %
11.12.2010 05:01 1,2 C 0,0 C 0,0 C 89 % 0 cb 1021,5 hPa 0,0 l/m 11,5 km/h (2 Bft) W-NW 290 0 min 0,000 mm 0 W/m -0,4 C -2,2 C 11,5 km/h (2 Bft) 0,00 %
11.12.2010 05:06 1,2 C 0,0 C 0,0 C 89 % 0 cb 1021,5 hPa 0,0 l/m 8,2 km/h (2 Bft) SW 230 0 min 0,000 mm 0 W/m -0,4 C -1,4 C 8,2 km/h (2 Bft) 0,00 %
11.12.2010 05:11 1,2 C 0,0 C 0,0 C 89 % 0 cb 1021,5 hPa 0,0 l/m 10,9 km/h (2 Bft) S-SO 150 0 min 0,000 mm 0 W/m -0,4 C -2,1 C 10,9 km/h (2 Bft) 0,00 %
11.12.2010 05:16 1,3 C 0,0 C 0,0 C 89 % 0 cb 1021,5 hPa 0,0 l/m 10,3 km/h (2 Bft) NW 315 0 min 0,000 mm 0 W/m -0,3 C -1,8 C 10,3 km/h (2 Bft) 0,00 %
11.12.2010 05:21 1,3 C 0,0 C 0,0 C 89 % 0 cb 1021,5 hPa 0,0 l/m 12,1 km/h (2 Bft) W 275 0 min 0,000 mm 0 W/m -0,3 C -2,2 C 12,1 km/h (2 Bft) 0,00 %
11.12.2010 05:26 1,3 C 0,0 C 0,0 C 89 % 0 cb 1021,5 hPa 0,0 l/m 18,2 km/h (3 Bft) W-NW 285 0 min 0,000 mm 0 W/m -0,3 C -3,3 C 18,2 km/h (3 Bft) 0,00 %
11.12.2010 05:31 1,3 C 0,0 C 0,0 C 89 % 0 cb 1021,5 hPa 0,0 l/m 8,8 km/h (2 Bft) W-SW 245 0 min 0,000 mm 0 W/m -0,3 C -1,4 C 8,8 km/h (2 Bft) 0,00 %
11.12.2010 05:36 1,3 C 0,0 C 0,0 C 89 % 0 cb 1021,5 hPa 0,0 l/m 12,7 km/h (3 Bft) W 270 0 min 0,000 mm 0 W/m -0,3 C -2,4 C 12,7 km/h (3 Bft) 0,00 %
11.12.2010 05:41 1,4 C 0,0 C 0,0 C 89 % 0 cb 1020,5 hPa 0,0 l/m 16,0 km/h (3 Bft) W-SW 240 0 min 0,000 mm 0 W/m -0,2 C -2,9 C 16,0 km/h (3 Bft) 0,00 %
11.12.2010 05:46 1,4 C 0,0 C 0,0 C 89 % 0 cb 1020,5 hPa 0,0 l/m 13,9 km/h (3 Bft) SW 230 0 min 0,000 mm 0 W/m -0,2 C -2,5 C 13,9 km/h (3 Bft) 0,00 %
11.12.2010 05:51 1,4 C 0,0 C 0,0 C 89 % 0 cb 1020,5 hPa 0,0 l/m 12,7 km/h (3 Bft) NW 315 0 min 0,000 mm 0 W/m -0,2 C -2,3 C 12,7 km/h (3 Bft) 0,00 %
11.12.2010 05:56 1,4 C 0,0 C 0,0 C 89 % 0 cb 1020,5 hPa 0,0 l/m 10,9 km/h (2 Bft) S 190 0 min 0,000 mm 0 W/m -0,2 C -1,9 C 10,9 km/h (2 Bft) 0,00 %
11.12.2010 06:01 1,4 C 0,0 C 0,0 C 89 % 0 cb 1020,5 hPa 0,0 l/m 22,4 km/h (4 Bft) W 265 0 min 0,000 mm 0 W/m -0,2 C -3,8 C 22,4 km/h (4 Bft) 0,00 %
11.12.2010 06:06 1,3 C 0,0 C 0,0 C 89 % 0 cb 1020,5 hPa 0,0 l/m 12,4 km/h (3 Bft) W-SW 245 0 min 0,000 mm 0 W/m -0,3 C -2,3 C 12,4 km/h (3 Bft) 0,00 %
11.12.2010 06:11 1,4 C 0,0 C 0,0 C 89 % 0 cb 1020,5 hPa 0,0 l/m 16,6 km/h (3 Bft) W-NW 290 0 min 0,000 mm 0 W/m -0,2 C -3,0 C 16,6 km/h (3 Bft) 0,00 %
11.12.2010 06:16 1,5 C 0,0 C 0,0 C 89 % 0 cb 1020,5 hPa 0,0 l/m 15,7 km/h (3 Bft) W 260 0 min 0,000 mm 0 W/m -0,1 C -2,7 C 15,7 km/h (3 Bft) 0,00 %
11.12.2010 06:21 1,4 C 0,0 C 0,0 C 89 % 0 cb 1020,5 hPa 0,0 l/m 16,0 km/h (3 Bft) W 265 0 min 0,000 mm 0 W/m -0,2 C -2,9 C 16,0 km/h (3 Bft) 0,00 %
11.12.2010 06:26 1,4 C 0,0 C 0,0 C 89 % 0 cb 1020,5 hPa 0,0 l/m 13,9 km/h (3 Bft) W-NW 300 0 min 0,000 mm 0 W/m -0,2 C -2,5 C 13,9 km/h (3 Bft) 0,00 %
11.12.2010 06:31 1,5 C 0,0 C 0,0 C 89 % 0 cb 1020,5 hPa 0,0 l/m 13,3 km/h (3 Bft) N-NO 20 0 min 0,000 mm 0 W/m -0,1 C -2,2 C 13,3 km/h (3 Bft) 0,00 %
11.12.2010 06:36 1,5 C 0,0 C 0,0 C 89 % 0 cb 1020,5 hPa 0,6 l/m 10,9 km/h (2 Bft) W 275 0 min 0,000 mm 0 W/m -0,1 C -1,7 C 10,9 km/h (2 Bft) 0,00 %
11.12.2010 06:41 1,5 C 0,0 C 0,0 C 89 % 0 cb 1020,5 hPa 0,0 l/m 13,9 km/h (3 Bft) W-NW 295 0 min 0,000 mm 0 W/m -0,1 C -2,4 C 13,9 km/h (3 Bft) 0,00 %
11.12.2010 06:46 1,5 C 0,0 C 0,0 C 89 % 0 cb 1020,5 hPa 0,0 l/m 9,1 km/h (2 Bft) W 260 0 min 0,000 mm 0 W/m -0,1 C -1,3 C 9,1 km/h (2 Bft) 0,00 %
11.12.2010 06:51 1,6 C 0,0 C 0,0 C 89 % 0 cb 1020,5 hPa 0,0 l/m 12,1 km/h (2 Bft) NW 310 0 min 0,000 mm 0 W/m -0,0 C -1,9 C 12,1 km/h (2 Bft) 0,00 %
11.12.2010 06:56 1,6 C 0,0 C 0,0 C 89 % 0 cb 1020,5 hPa 0,0 l/m 18,2 km/h (3 Bft) W-NW 295 0 min 0,000 mm 0 W/m -0,0 C -3,0 C 18,2 km/h (3 Bft) 0,00 %
11.12.2010 07:01 1,5 C 0,0 C 0,0 C 89 % 0 cb 1020,5 hPa 0,0 l/m 10,9 km/h (2 Bft) W-NW 290 0 min 0,000 mm 0 W/m -0,1 C -1,7 C 10,9 km/h (2 Bft) 0,00 %
11.12.2010 07:06 1,6 C 0,0 C 0,0 C 89 % 0 cb 1020,5 hPa 0,0 l/m 10,6 km/h (2 Bft) SO 145 0 min 0,000 mm 0 W/m -0,0 C -1,5 C 10,6 km/h (2 Bft) 0,00 %
11.12.2010 07:11 1,6 C 0,0 C 0,0 C 89 % 0 cb 1020,5 hPa 0,0 l/m 11,5 km/h (2 Bft) W-SW 240 0 min 0,000 mm 0 W/m -0,0 C -1,8 C 11,5 km/h (2 Bft) 0,00 %
11.12.2010 07:16 1,7 C 0,0 C 0,0 C 89 % 0 cb 1020,5 hPa 0,0 l/m 16,3 km/h (3 Bft) W-SW 245 0 min 0,000 mm 0 W/m 0,1 C -2,5 C 16,3 km/h (3 Bft) 0,00 %
11.12.2010 07:21 1,7 C 0,0 C 0,0 C 89 % 0 cb 1020,5 hPa 0,0 l/m 12,7 km/h (3 Bft) W-NW 285 0 min 0,000 mm 0 W/m 0,1 C -1,9 C 12,7 km/h (3 Bft) 0,00 %
11.12.2010 07:26 1,6 C 0,0 C 0,0 C 89 % 0 cb 1020,5 hPa 0,0 l/m 10,6 km/h (2 Bft) W 280 0 min 0,000 mm 0 W/m -0,0 C -1,5 C 10,6 km/h (2 Bft) 0,00 %
11.12.2010 07:31 1,6 C 0,0 C 0,0 C 89 % 0 cb 1020,5 hPa 0,0 l/m 15,1 km/h (3 Bft) N-NW 335 0 min 0,000 mm 0 W/m -0,0 C -2,5 C 15,1 km/h (3 Bft) 0,00 %
11.12.2010 07:36 1,6 C 0,0 C 0,0 C 89 % 0 cb 1020,5 hPa 0,0 l/m 14,2 km/h (3 Bft) W-NW 295 0 min 0,000 mm 0 W/m -0,0 C -2,3 C 14,2 km/h (3 Bft) 0,00 %
11.12.2010 07:41 1,7 C 0,0 C 0,0 C 89 % 0 cb 1020,5 hPa 0,6 l/m 13,9 km/h (3 Bft) W-NW 300 0 min 0,000 mm 0 W/m 0,1 C -2,1 C 13,9 km/h (3 Bft) 0,00 %
11.12.2010 07:46 1,7 C 0,0 C 0,0 C 89 % 0 cb 1020,5 hPa 0,0 l/m 16,6 km/h (3 Bft) W 275 0 min 0,000 mm 0 W/m 0,1 C -2,6 C 16,6 km/h (3 Bft) 0,00 %
11.12.2010 07:51 1,7 C 0,0 C 0,0 C 89 % 0 cb 1020,5 hPa 0,0 l/m 12,1 km/h (2 Bft) W 280 0 min 0,000 mm 0 W/m 0,1 C -1,8 C 12,1 km/h (2 Bft) 0,00 %
11.12.2010 07:56 1,8 C 0,0 C 0,0 C 89 % 0 cb 1020,5 hPa 0,0 l/m 14,8 km/h (3 Bft) W-SW 255 0 min 0,000 mm 0 W/m 0,2 C -2,2 C 14,8 km/h (3 Bft) 0,00 %
11.12.2010 08:01 1,8 C 0,0 C 0,0 C 89 % 0 cb 1020,5 hPa 0,0 l/m 15,7 km/h (3 Bft) NW 305 0 min 0,000 mm 0 W/m 0,2 C -2,3 C 15,7 km/h (3 Bft) 0,00 %
11.12.2010 08:06 1,8 C 0,0 C 0,0 C 88 % 0 cb 1020,5 hPa 0,0 l/m 12,1 km/h (2 Bft) W 265 0 min 0,000 mm 0 W/m 0,0 C -1,6 C 12,1 km/h (2 Bft) 0,00 %
11.12.2010 08:11 1,8 C 0,0 C 0,0 C 88 % 0 cb 1020,5 hPa 0,0 l/m 17,2 km/h (3 Bft) SW 235 0 min 0,000 mm 0 W/m 0,0 C -2,6 C 17,2 km/h (3 Bft) 0,00 %
11.12.2010 08:16 1,8 C 0,0 C 0,0 C 88 % 0 cb 1020,5 hPa 0,0 l/m 14,2 km/h (3 Bft) W-NW 285 0 min 0,000 mm 0 W/m 0,0 C -2,1 C 14,2 km/h (3 Bft) 0,00 %
11.12.2010 08:21 1,7 C 0,0 C 0,0 C 88 % 0 cb 1020,5 hPa 0,6 l/m 12,4 km/h (3 Bft) W 260 0 min 0,000 mm 0 W/m -0,1 C -1,8 C 12,4 km/h (3 Bft) 0,00 %
11.12.2010 08:26 1,8 C 0,0 C 0,0 C 88 % 0 cb 1020,5 hPa 0,0 l/m 20,0 km/h (4 Bft) SW 230 0 min 0,000 mm 0 W/m 0,0 C -3,0 C 20,0 km/h (4 Bft) 0,00 %
11.12.2010 08:31 1,8 C 0,0 C 0,0 C 88 % 0 cb 1020,5 hPa 0,0 l/m 13,9 km/h (3 Bft) W 280 0 min 0,000 mm 0 W/m 0,0 C -2,0 C 13,9 km/h (3 Bft) 0,00 %
11.12.2010 08:36 1,8 C 0,0 C 0,0 C 88 % 0 cb 1020,5 hPa 0,0 l/m 16,3 km/h (3 Bft) W-SW 250 0 min 0,000 mm 0 W/m 0,0 C -2,4 C 16,3 km/h (3 Bft) 0,00 %
11.12.2010 08:41 1,8 C 0,0 C 0,0 C 88 % 0 cb 1020,5 hPa 0,0 l/m 15,7 km/h (3 Bft) W 265 0 min 0,000 mm 0 W/m 0,0 C -2,3 C 15,7 km/h (3 Bft) 0,00 %
11.12.2010 08:46 1,8 C 0,0 C 0,0 C 88 % 0 cb 1020,5 hPa 0,0 l/m 20,6 km/h (4 Bft) W-SW 240 0 min 0,000 mm 0 W/m 0,0 C -3,1 C 20,6 km/h (4 Bft) 0,00 %
11.12.2010 08:51 1,8 C 0,0 C 0,0 C 88 % 0 cb 1020,5 hPa 0,0 l/m 13,0 km/h (3 Bft) W-SW 250 0 min 0,000 mm 0 W/m 0,0 C -1,8 C 13,0 km/h (3 Bft) 0,00 %
11.12.2010 08:56 1,8 C 0,0 C 0,0 C 88 % 0 cb 1020,5 hPa 0,0 l/m 17,6 km/h (3 Bft) W 265 0 min 0,000 mm 0 W/m 0,0 C -2,6 C 17,6 km/h (3 Bft) 0,00 %
11.12.2010 09:01 2,0 C 0,0 C 0,0 C 88 % 0 cb 1020,5 hPa 0,0 l/m 20,6 km/h (4 Bft) W 265 0 min 0,000 mm 0 W/m 0,2 C -2,8 C 20,6 km/h (4 Bft) 0,00 %
11.12.2010 09:06 1,9 C 0,0 C 0,0 C 88 % 0 cb 1020,5 hPa 0,6 l/m 19,4 km/h (3 Bft) W 280 0 min 0,000 mm 0 W/m 0,1 C -2,8 C 19,4 km/h (3 Bft) 0,00 %
11.12.2010 09:11 1,9 C 0,0 C 0,0 C 87 % 0 cb 1020,5 hPa 0,0 l/m 16,6 km/h (3 Bft) W-NW 295 0 min 0,000 mm 0 W/m -0,0 C -2,3 C 16,6 km/h (3 Bft) 0,00 %
11.12.2010 09:16 2,0 C 0,0 C 0,0 C 87 % 0 cb 1020,5 hPa 0,0 l/m 13,3 km/h (3 Bft) W-NW 290 0 min 0,000 mm 0 W/m 0,1 C -1,6 C 13,3 km/h (3 Bft) 0,00 %
11.12.2010 09:21 2,0 C 0,0 C 0,0 C 87 % 0 cb 1020,5 hPa 0,0 l/m 23,3 km/h (4 Bft) W-NW 290 0 min 0,000 mm 0 W/m 0,1 C -3,1 C 23,3 km/h (4 Bft) 0,00 %
11.12.2010 09:26 2,0 C 0,0 C 0,0 C 87 % 0 cb 1020,5 hPa 0,0 l/m 12,4 km/h (3 Bft) W 270 0 min 0,000 mm 0 W/m 0,1 C -1,5 C 12,4 km/h (3 Bft) 0,00 %
11.12.2010 09:31 2,0 C 0,0 C 0,0 C 87 % 0 cb 1020,5 hPa 0,0 l/m 16,0 km/h (3 Bft) W 280 0 min 0,000 mm 0 W/m 0,1 C -2,1 C 16,0 km/h (3 Bft) 0,00 %
11.12.2010 09:36 2,0 C 0,0 C 0,0 C 87 % 0 cb 1020,5 hPa 0,0 l/m 16,9 km/h (3 Bft) W-SW 245 0 min 0,000 mm 0 W/m 0,1 C -2,3 C 16,9 km/h (3 Bft) 0,00 %
11.12.2010 09:41 2,1 C 0,0 C 0,0 C 87 % 0 cb 1020,5 hPa 0,0 l/m 16,3 km/h (3 Bft) W 280 0 min 0,000 mm 0 W/m 0,2 C -2,0 C 16,3 km/h (3 Bft) 0,00 %
11.12.2010 09:46 2,1 C 0,0 C 0,0 C 87 % 0 cb 1020,5 hPa 0,0 l/m 14,2 km/h (3 Bft) N 355 0 min 0,000 mm 0 W/m 0,2 C -1,7 C 14,2 km/h (3 Bft) 0,00 %
11.12.2010 09:51 2,0 C 0,0 C 0,0 C 87 % 0 cb 1020,5 hPa 0,0 l/m 9,1 km/h (2 Bft) W 280 0 min 0,000 mm 0 W/m 0,1 C -0,7 C 9,1 km/h (2 Bft) 0,00 %
11.12.2010 09:56 2,0 C 0,0 C 0,0 C 87 % 0 cb 1020,5 hPa 0,0 l/m 13,9 km/h (3 Bft) W 270 0 min 0,000 mm 0 W/m 0,1 C -1,8 C 13,9 km/h (3 Bft) 0,00 %
11.12.2010 10:01 2,1 C 0,0 C 0,0 C 87 % 0 cb 1020,5 hPa 0,0 l/m 13,3 km/h (3 Bft) NW 320 0 min 0,000 mm 0 W/m 0,2 C -1,5 C 13,3 km/h (3 Bft) 0,00 %
11.12.2010 10:06 2,1 C 0,0 C 0,0 C 87 % 0 cb 1020,5 hPa 0,0 l/m 18,5 km/h (3 Bft) W-SW 250 0 min 0,000 mm 0 W/m 0,2 C -2,4 C 18,5 km/h (3 Bft) 0,00 %
11.12.2010 10:11 2,2 C 0,0 C 0,0 C 87 % 0 cb 1020,5 hPa 0,3 l/m 15,4 km/h (3 Bft) W-SW 255 0 min 0,000 mm 0 W/m 0,3 C -1,8 C 15,4 km/h (3 Bft) 0,00 %
11.12.2010 10:16 2,1 C 0,0 C 0,0 C 87 % 0 cb 1020,5 hPa 0,0 l/m 11,5 km/h (2 Bft) NW 325 0 min 0,000 mm 0 W/m 0,2 C -1,2 C 11,5 km/h (2 Bft) 0,00 %
11.12.2010 10:21 2,1 C 0,0 C 0,0 C 87 % 0 cb 1020,5 hPa 0,0 l/m 17,9 km/h (3 Bft) SW 235 0 min 0,000 mm 0 W/m 0,2 C -2,3 C 17,9 km/h (3 Bft) 0,00 %
11.12.2010 10:26 2,2 C 0,0 C 0,0 C 87 % 0 cb 1021,5 hPa 0,0 l/m 15,1 km/h (3 Bft) NW 320 0 min 0,000 mm 0 W/m 0,3 C -1,7 C 15,1 km/h (3 Bft) 0,00 %
11.12.2010 10:31 2,1 C 0,0 C 0,0 C 87 % 0 cb 1021,5 hPa 0,0 l/m 12,7 km/h (3 Bft) W-SW 240 0 min 0,000 mm 0 W/m 0,2 C -1,4 C 12,7 km/h (3 Bft) 0,00 %
11.12.2010 10:36 2,2 C 0,0 C 0,0 C 87 % 0 cb 1021,5 hPa 0,0 l/m 13,6 km/h (3 Bft) W-NW 295 0 min 0,000 mm 0 W/m 0,3 C -1,5 C 13,6 km/h (3 Bft) 0,00 %
11.12.2010 10:41 2,1 C 0,0 C 0,0 C 87 % 0 cb 1021,5 hPa 0,0 l/m 12,7 km/h (3 Bft) W 270 0 min 0,000 mm 0 W/m 0,2 C -1,4 C 12,7 km/h (3 Bft) 0,00 %
11.12.2010 10:46 2,1 C 0,0 C 0,0 C 87 % 0 cb 1021,5 hPa 0,0 l/m 16,0 km/h (3 Bft) W-SW 245 0 min 0,000 mm 0 W/m 0,2 C -2,0 C 16,0 km/h (3 Bft) 0,00 %
11.12.2010 10:51 2,1 C 0,0 C 0,0 C 87 % 0 cb 1021,5 hPa 0,0 l/m 16,6 km/h (3 Bft) W-NW 295 0 min 0,000 mm 0 W/m 0,2 C -2,1 C 16,6 km/h (3 Bft) 0,00 %
11.12.2010 10:56 2,1 C 0,0 C 0,0 C 87 % 0 cb 1020,5 hPa 0,0 l/m 16,3 km/h (3 Bft) W-NW 285 0 min 0,000 mm 0 W/m 0,2 C -2,0 C 16,3 km/h (3 Bft) 0,00 %
11.12.2010 11:01 2,2 C 0,0 C 0,0 C 87 % 0 cb 1020,5 hPa 0,0 l/m 16,3 km/h (3 Bft) NW 315 0 min 0,000 mm 0 W/m 0,3 C -1,9 C 16,3 km/h (3 Bft) 0,00 %
11.12.2010 11:06 2,2 C 0,0 C 0,0 C 87 % 0 cb 1020,5 hPa 0,0 l/m 13,3 km/h (3 Bft) W-SW 245 0 min 0,000 mm 0 W/m 0,3 C -1,4 C 13,3 km/h (3 Bft) 0,00 %
11.12.2010 11:11 2,2 C 0,0 C 0,0 C 87 % 0 cb 1020,5 hPa 0,3 l/m 18,2 km/h (3 Bft) W 280 0 min 0,000 mm 0 W/m 0,3 C -2,2 C 18,2 km/h (3 Bft) 0,00 %
11.12.2010 11:16 2,1 C 0,0 C 0,0 C 87 % 0 cb 1020,5 hPa 0,0 l/m 15,1 km/h (3 Bft) W-NW 290 0 min 0,000 mm 0 W/m 0,2 C -1,8 C 15,1 km/h (3 Bft) 0,00 %
11.12.2010 11:21 2,1 C 0,0 C 0,0 C 87 % 0 cb 1020,5 hPa 0,0 l/m 13,6 km/h (3 Bft) O-NO 70 0 min 0,000 mm 0 W/m 0,2 C -1,6 C 13,6 km/h (3 Bft) 0,00 %
11.12.2010 11:26 2,1 C 0,0 C 0,0 C 87 % 0 cb 1020,5 hPa 0,0 l/m 15,4 km/h (3 Bft) NW 315 0 min 0,000 mm 0 W/m 0,2 C -1,9 C 15,4 km/h (3 Bft) 0,00 %
11.12.2010 11:31 2,1 C 0,0 C 0,0 C 87 % 0 cb 1020,5 hPa 0,0 l/m 18,5 km/h (3 Bft) W-SW 255 0 min 0,000 mm 0 W/m 0,2 C -2,4 C 18,5 km/h (3 Bft) 0,00 %
11.12.2010 11:36 2,1 C 0,0 C 0,0 C 87 % 0 cb 1020,5 hPa 0,0 l/m 14,2 km/h (3 Bft) W-SW 250 0 min 0,000 mm 0 W/m 0,2 C -1,7 C 14,2 km/h (3 Bft) 0,00 %
11.12.2010 11:41 2,1 C 0,0 C 0,0 C 87 % 0 cb 1020,5 hPa 0,0 l/m 13,9 km/h (3 Bft) SO 145 0 min 0,000 mm 0 W/m 0,2 C -1,6 C 13,9 km/h (3 Bft) 0,00 %
11.12.2010 11:46 2,0 C 0,0 C 0,0 C 87 % 0 cb 1020,5 hPa 0,0 l/m 16,3 km/h (3 Bft) W 270 0 min 0,000 mm 0 W/m 0,1 C -2,2 C 16,3 km/h (3 Bft) 0,00 %
11.12.2010 11:51 2,0 C 0,0 C 0,0 C 87 % 0 cb 1020,5 hPa 0,0 l/m 12,7 km/h (3 Bft) W-NW 290 0 min 0,000 mm 0 W/m 0,1 C -1,5 C 12,7 km/h (3 Bft) 0,00 %
11.12.2010 11:56 2,1 C 0,0 C 0,0 C 87 % 0 cb 1020,5 hPa 0,0 l/m 16,3 km/h (3 Bft) W 265 0 min 0,000 mm 0 W/m 0,2 C -2,0 C 16,3 km/h (3 Bft) 0,00 %
11.12.2010 12:01 2,0 C 0,0 C 0,0 C 87 % 0 cb 1020,5 hPa 0,0 l/m 10,6 km/h (2 Bft) N-NW 345 0 min 0,000 mm 0 W/m 0,1 C -1,1 C 10,6 km/h (2 Bft) 0,00 %
11.12.2010 12:06 2,1 C 0,0 C 0,0 C 87 % 0 cb 1020,5 hPa 0,0 l/m 17,6 km/h (3 Bft) W 265 0 min 0,000 mm 0 W/m 0,2 C -2,2 C 17,6 km/h (3 Bft) 0,00 %
11.12.2010 12:11 1,9 C 0,0 C 0,0 C 87 % 0 cb 1020,5 hPa 0,0 l/m 11,5 km/h (2 Bft) W-NW 295 0 min 0,000 mm 0 W/m -0,0 C -1,4 C 11,5 km/h (2 Bft) 0,00 %
11.12.2010 12:16 2,0 C 0,0 C 0,0 C 87 % 0 cb 1020,5 hPa 0,3 l/m 17,6 km/h (3 Bft) W 270 0 min 0,000 mm 0 W/m 0,1 C -2,4 C 17,6 km/h (3 Bft) 0,00 %
11.12.2010 12:21 2,0 C 0,0 C 0,0 C 87 % 0 cb 1020,5 hPa 0,0 l/m 14,2 km/h (3 Bft) NW 320 0 min 0,000 mm 0 W/m 0,1 C -1,8 C 14,2 km/h (3 Bft) 0,00 %
11.12.2010 12:26 2,0 C 0,0 C 0,0 C 87 % 0 cb 1020,5 hPa 0,0 l/m 21,8 km/h (4 Bft) W 270 0 min 0,000 mm 0 W/m 0,1 C -3,0 C 21,8 km/h (4 Bft) 0,00 %
11.12.2010 12:31 2,0 C 0,0 C 0,0 C 87 % 0 cb 1020,5 hPa 0,0 l/m 13,9 km/h (3 Bft) SW 230 0 min 0,000 mm 0 W/m 0,1 C -1,8 C 13,9 km/h (3 Bft) 0,00 %
11.12.2010 12:36 2,0 C 0,0 C 0,0 C 87 % 0 cb 1020,5 hPa 0,0 l/m 13,0 km/h (3 Bft) W 275 0 min 0,000 mm 0 W/m 0,1 C -1,6 C 13,0 km/h (3 Bft) 0,00 %
11.12.2010 12:41 2,0 C 0,0 C 0,0 C 87 % 0 cb 1019,5 hPa 0,0 l/m 13,0 km/h (3 Bft) W 270 0 min 0,000 mm 0 W/m 0,1 C -1,6 C 13,0 km/h (3 Bft) 0,00 %
11.12.2010 12:46 2,0 C 0,0 C 0,0 C 87 % 0 cb 1019,5 hPa 0,0 l/m 10,0 km/h (2 Bft) W 265 0 min 0,000 mm 0 W/m 0,1 C -0,9 C 10,0 km/h (2 Bft) 0,00 %
11.12.2010 12:51 2,0 C 0,0 C 0,0 C 87 % 0 cb 1019,5 hPa 0,0 l/m 9,7 km/h (2 Bft) W-SW 240 0 min 0,000 mm 0 W/m 0,1 C -0,9 C 9,7 km/h (2 Bft) 0,00 %
11.12.2010 12:56 2,0 C 0,0 C 0,0 C 87 % 0 cb 1020,5 hPa 0,0 l/m 11,2 km/h (2 Bft) NW 305 0 min 0,000 mm 0 W/m 0,1 C -1,2 C 11,2 km/h (2 Bft) 0,00 %
11.12.2010 13:01 2,0 C 0,0 C 0,0 C 87 % 0 cb 1020,5 hPa 0,0 l/m 9,7 km/h (2 Bft) SO 140 0 min 0,000 mm 0 W/m 0,1 C -0,9 C 9,7 km/h (2 Bft) 0,00 %
11.12.2010 13:06 2,0 C 0,0 C 0,0 C 87 % 0 cb 1020,5 hPa 0,0 l/m 13,9 km/h (3 Bft) W 265 0 min 0,000 mm 0 W/m 0,1 C -1,8 C 13,9 km/h (3 Bft) 0,00 %
11.12.2010 13:11 2,0 C 0,0 C 0,0 C 87 % 0 cb 1019,5 hPa 0,0 l/m 16,3 km/h (3 Bft) W-SW 240 0 min 0,000 mm 0 W/m 0,1 C -2,2 C 16,3 km/h (3 Bft) 0,00 %
11.12.2010 13:16 2,0 C 0,0 C 0,0 C 87 % 0 cb 1019,5 hPa 0,0 l/m 13,6 km/h (3 Bft) NW 310 0 min 0,000 mm 0 W/m 0,1 C -1,7 C 13,6 km/h (3 Bft) 0,00 %
11.12.2010 13:21 2,0 C 0,0 C 0,0 C 88 % 0 cb 1019,5 hPa 0,0 l/m 12,1 km/h (2 Bft) W 280 0 min 0,000 mm 0 W/m 0,2 C -1,4 C 12,1 km/h (2 Bft) 0,00 %
11.12.2010 13:26 2,0 C 0,0 C 0,0 C 87 % 0 cb 1019,5 hPa 0,0 l/m 16,9 km/h (3 Bft) W-SW 255 0 min 0,000 mm 0 W/m 0,1 C -2,3 C 16,9 km/h (3 Bft) 0,00 %
11.12.2010 13:31 2,0 C 0,0 C 0,0 C 88 % 0 cb 1019,5 hPa 0,0 l/m 12,7 km/h (3 Bft) W 280 0 min 0,000 mm 0 W/m 0,2 C -1,5 C 12,7 km/h (3 Bft) 0,00 %
11.12.2010 13:36 2,0 C 0,0 C 0,0 C 87 % 0 cb 1019,5 hPa 0,0 l/m 14,2 km/h (3 Bft) W-SW 250 0 min 0,000 mm 0 W/m 0,1 C -1,8 C 14,2 km/h (3 Bft) 0,00 %
11.12.2010 13:41 2,0 C 0,0 C 0,0 C 88 % 0 cb 1019,5 hPa 0,0 l/m 12,1 km/h (2 Bft) SW 235 0 min 0,000 mm 0 W/m 0,2 C -1,4 C 12,1 km/h (2 Bft) 0,00 %
11.12.2010 13:46 2,0 C 0,0 C 0,0 C 88 % 0 cb 1019,5 hPa 0,0 l/m 16,3 km/h (3 Bft) N-NW 335 0 min 0,000 mm 0 W/m 0,2 C -2,2 C 16,3 km/h (3 Bft) 0,00 %
11.12.2010 13:51 1,9 C 0,0 C 0,0 C 88 % 0 cb 1019,5 hPa 0,0 l/m 13,0 km/h (3 Bft) W 260 0 min 0,000 mm 0 W/m 0,1 C -1,7 C 13,0 km/h (3 Bft) 0,00 %
11.12.2010 13:56 1,9 C 0,0 C 0,0 C 88 % 0 cb 1019,5 hPa 0,0 l/m 13,0 km/h (3 Bft) W-SW 245 0 min 0,000 mm 0 W/m 0,1 C -1,7 C 13,0 km/h (3 Bft) 0,00 %
11.12.2010 14:01 2,0 C 0,0 C 0,0 C 88 % 0 cb 1019,5 hPa 0,3 l/m 15,4 km/h (3 Bft) S-SW 195 0 min 0,000 mm 0 W/m 0,2 C -2,0 C 15,4 km/h (3 Bft) 0,00 %
11.12.2010 14:06 1,9 C 0,0 C 0,0 C 88 % 0 cb 1019,5 hPa 0,0 l/m 13,3 km/h (3 Bft) W-NW 295 0 min 0,000 mm 0 W/m 0,1 C -1,8 C 13,3 km/h (3 Bft) 0,00 %
11.12.2010 14:11 2,0 C 0,0 C 0,0 C 88 % 0 cb 1019,5 hPa 0,0 l/m 17,2 km/h (3 Bft) S-SW 195 0 min 0,000 mm 0 W/m 0,2 C -2,3 C 17,2 km/h (3 Bft) 0,00 %
11.12.2010 14:16 1,9 C 0,0 C 0,0 C 88 % 0 cb 1019,5 hPa 0,0 l/m 13,3 km/h (3 Bft) NW 325 0 min 0,000 mm 0 W/m 0,1 C -1,8 C 13,3 km/h (3 Bft) 0,00 %
11.12.2010 14:21 1,9 C 0,0 C 0,0 C 88 % 0 cb 1019,5 hPa 0,0 l/m 12,7 km/h (3 Bft) SW 225 0 min 0,000 mm 0 W/m 0,1 C -1,6 C 12,7 km/h (3 Bft) 0,00 %
11.12.2010 14:26 2,0 C 0,0 C 0,0 C 88 % 0 cb 1019,5 hPa 0,0 l/m 14,2 km/h (3 Bft) W 265 0 min 0,000 mm 0 W/m 0,2 C -1,8 C 14,2 km/h (3 Bft) 0,00 %
11.12.2010 14:31 2,0 C 0,0 C 0,0 C 88 % 0 cb 1019,5 hPa 0,0 l/m 9,1 km/h (2 Bft) SW 235 0 min 0,000 mm 0 W/m 0,2 C -0,7 C 9,1 km/h (2 Bft) 0,00 %
11.12.2010 14:36 2,0 C 0,0 C 0,0 C 88 % 0 cb 1019,5 hPa 0,0 l/m 9,1 km/h (2 Bft) W 280 0 min 0,000 mm 0 W/m 0,2 C -0,7 C 9,1 km/h (2 Bft) 0,00 %
11.12.2010 14:41 2,0 C 0,0 C 0,0 C 88 % 0 cb 1019,5 hPa 0,0 l/m 10,9 km/h (2 Bft) W 265 0 min 0,000 mm 0 W/m 0,2 C -1,1 C 10,9 km/h (2 Bft) 0,00 %
11.12.2010 14:46 2,0 C 0,0 C 0,0 C 88 % 0 cb 1019,5 hPa 0,0 l/m 13,3 km/h (3 Bft) SW 235 0 min 0,000 mm 0 W/m 0,2 C -1,6 C 13,3 km/h (3 Bft) 0,00 %
11.12.2010 14:51 1,9 C 0,0 C 0,0 C 88 % 0 cb 1019,5 hPa 0,0 l/m 10,3 km/h (2 Bft) W-SW 255 0 min 0,000 mm 0 W/m 0,1 C -1,1 C 10,3 km/h (2 Bft) 0,00 %
11.12.2010 14:56 2,0 C 0,0 C 0,0 C 88 % 0 cb 1019,5 hPa 0,0 l/m 13,9 km/h (3 Bft) NW 310 0 min 0,000 mm 0 W/m 0,2 C -1,8 C 13,9 km/h (3 Bft) 0,00 %
11.12.2010 15:01 2,0 C 0,0 C 0,0 C 88 % 0 cb 1019,5 hPa 0,0 l/m 8,8 km/h (2 Bft) W-SW 240 0 min 0,000 mm 0 W/m 0,2 C -0,6 C 8,8 km/h (2 Bft) 0,00 %
11.12.2010 15:06 2,0 C 0,0 C 0,0 C 88 % 0 cb 1019,5 hPa 0,0 l/m 14,8 km/h (3 Bft) W 280 0 min 0,000 mm 0 W/m 0,2 C -1,9 C 14,8 km/h (3 Bft) 0,00 %
11.12.2010 15:11 2,0 C 0,0 C 0,0 C 88 % 0 cb 1019,5 hPa 0,0 l/m 9,7 km/h (2 Bft) W-SW 250 0 min 0,000 mm 0 W/m 0,2 C -0,9 C 9,7 km/h (2 Bft) 0,00 %
11.12.2010 15:16 2,1 C 0,0 C 0,0 C 88 % 0 cb 1019,5 hPa 0,0 l/m 13,3 km/h (3 Bft) W 270 0 min 0,000 mm 0 W/m 0,3 C -1,5 C 13,3 km/h (3 Bft) 0,00 %
11.12.2010 15:21 2,0 C 0,0 C 0,0 C 88 % 0 cb 1019,5 hPa 0,0 l/m 12,4 km/h (3 Bft) W-NW 300 0 min 0,000 mm 0 W/m 0,2 C -1,5 C 12,4 km/h (3 Bft) 0,00 %
11.12.2010 15:26 2,0 C 0,0 C 0,0 C 88 % 0 cb 1019,5 hPa 0,0 l/m 9,7 km/h (2 Bft) W-SW 245 0 min 0,000 mm 0 W/m 0,2 C -0,9 C 9,7 km/h (2 Bft) 0,00 %
11.12.2010 15:31 1,9 C 0,0 C 0,0 C 88 % 0 cb 1019,5 hPa 0,0 l/m 10,3 km/h (2 Bft) S-SW 200 0 min 0,000 mm 0 W/m 0,1 C -1,1 C 10,3 km/h (2 Bft) 0,00 %
11.12.2010 15:36 1,9 C 0,0 C 0,0 C 88 % 0 cb 1019,5 hPa 0,0 l/m 9,1 km/h (2 Bft) W-NW 295 0 min 0,000 mm 0 W/m 0,1 C -0,8 C 9,1 km/h (2 Bft) 0,00 %
11.12.2010 15:41 1,9 C 0,0 C 0,0 C 88 % 0 cb 1019,5 hPa 0,0 l/m 13,0 km/h (3 Bft) W 270 0 min 0,000 mm 0 W/m 0,1 C -1,7 C 13,0 km/h (3 Bft) 0,00 %
11.12.2010 15:47 2,0 C 0,0 C 0,0 C 88 % 0 cb 1019,5 hPa 0,0 l/m 13,0 km/h (3 Bft) W 275 0 min 0,000 mm 0 W/m 0,2 C -1,6 C 13,0 km/h (3 Bft) 0,00 %
11.12.2010 15:52 2,0 C 0,0 C 0,0 C 88 % 0 cb 1019,5 hPa 0,0 l/m 13,3 km/h (3 Bft) W 265 0 min 0,000 mm 0 W/m 0,2 C -1,6 C 13,3 km/h (3 Bft) 0,00 %
11.12.2010 15:57 2,0 C 0,0 C 0,0 C 88 % 0 cb 1019,5 hPa 0,0 l/m 14,5 km/h (3 Bft) W-NW 295 0 min 0,000 mm 0 W/m 0,2 C -1,9 C 14,5 km/h (3 Bft) 0,00 %
11.12.2010 16:02 2,0 C 0,0 C 0,0 C 88 % 0 cb 1019,5 hPa 0,0 l/m 14,2 km/h (3 Bft) W 270 0 min 0,000 mm 0 W/m 0,2 C -1,8 C 14,2 km/h (3 Bft) 0,00 %
11.12.2010 16:07 2,0 C 0,0 C 0,0 C 88 % 0 cb 1019,5 hPa 0,0 l/m 15,4 km/h (3 Bft) W-NW 290 0 min 0,000 mm 0 W/m 0,2 C -2,0 C 15,4 km/h (3 Bft) 0,00 %
11.12.2010 16:12 2,0 C 0,0 C 0,0 C 88 % 0 cb 1019,5 hPa 0,0 l/m 19,7 km/h (3 Bft) W 260 0 min 0,000 mm 0 W/m 0,2 C -2,7 C 19,7 km/h (3 Bft) 0,00 %
11.12.2010 16:17 1,9 C 0,0 C 0,0 C 88 % 0 cb 1019,5 hPa 0,0 l/m 14,5 km/h (3 Bft) S 185 0 min 0,000 mm 0 W/m 0,1 C -2,0 C 14,5 km/h (3 Bft) 0,00 %
11.12.2010 16:22 1,9 C 0,0 C 0,0 C 88 % 0 cb 1019,5 hPa 0,0 l/m 13,3 km/h (3 Bft) W-SW 255 0 min 0,000 mm 0 W/m 0,1 C -1,8 C 13,3 km/h (3 Bft) 0,00 %
11.12.2010 16:27 2,0 C 0,0 C 0,0 C 88 % 0 cb 1019,5 hPa 0,0 l/m 12,1 km/h (2 Bft) W-SW 245 0 min 0,000 mm 0 W/m 0,2 C -1,4 C 12,1 km/h (2 Bft) 0,00 %
11.12.2010 16:32 2,0 C 0,0 C 0,0 C 88 % 0 cb 1019,5 hPa 0,0 l/m 8,8 km/h (2 Bft) W 280 0 min 0,000 mm 0 W/m 0,2 C -0,6 C 8,8 km/h (2 Bft) 0,00 %
11.12.2010 16:37 2,0 C 0,0 C 0,0 C 88 % 0 cb 1019,5 hPa 0,0 l/m 9,7 km/h (2 Bft) NW 305 0 min 0,000 mm 0 W/m 0,2 C -0,9 C 9,7 km/h (2 Bft) 0,00 %
11.12.2010 16:42 1,9 C 0,0 C 0,0 C 88 % 0 cb 1019,5 hPa 0,0 l/m 7,0 km/h (2 Bft) N 350 0 min 0,000 mm 0 W/m 0,1 C -0,2 C 7,0 km/h (2 Bft) 0,00 %
11.12.2010 16:47 2,0 C 0,0 C 0,0 C 88 % 0 cb 1019,5 hPa 0,0 l/m 8,5 km/h (2 Bft) NW 315 0 min 0,000 mm 0 W/m 0,2 C -0,5 C 8,5 km/h (2 Bft) 0,00 %
11.12.2010 16:52 2,0 C 0,0 C 0,0 C 88 % 0 cb 1019,5 hPa 0,0 l/m 7,6 km/h (2 Bft) W-SW 240 0 min 0,000 mm 0 W/m 0,2 C -0,3 C 7,6 km/h (2 Bft) 0,00 %
11.12.2010 16:57 1,9 C 0,0 C 0,0 C 88 % 0 cb 1019,5 hPa 0,0 l/m 6,1 km/h (2 Bft) W-NW 290 0 min 0,000 mm 0 W/m 0,1 C 0,1 C 6,1 km/h (2 Bft) 0,00 %
11.12.2010 17:02 1,8 C 0,0 C 0,0 C 88 % 0 cb 1019,5 hPa 0,0 l/m 10,9 km/h (2 Bft) S-SO 165 0 min 0,000 mm 0 W/m 0,0 C -1,4 C 10,9 km/h (2 Bft) 0,00 %
11.12.2010 17:07 1,9 C 0,0 C 0,0 C 88 % 0 cb 1019,5 hPa 0,0 l/m 12,1 km/h (2 Bft) W 265 0 min 0,000 mm 0 W/m 0,1 C -1,5 C 12,1 km/h (2 Bft) 0,00 %
11.12.2010 17:12 1,9 C 0,0 C 0,0 C 88 % 0 cb 1018,5 hPa 0,0 l/m 9,7 km/h (2 Bft) S-SW 195 0 min 0,000 mm 0 W/m 0,1 C -1,0 C 9,7 km/h (2 Bft) 0,00 %
11.12.2010 17:17 1,9 C 0,0 C 0,0 C 88 % 0 cb 1018,5 hPa 0,0 l/m 8,2 km/h (2 Bft) W-SW 255 0 min 0,000 mm 0 W/m 0,1 C -0,6 C 8,2 km/h (2 Bft) 0,00 %
11.12.2010 17:22 1,9 C 0,0 C 0,0 C 88 % 0 cb 1018,5 hPa 0,0 l/m 13,6 km/h (3 Bft) W-NW 285 0 min 0,000 mm 0 W/m 0,1 C -1,8 C 13,6 km/h (3 Bft) 0,00 %
11.12.2010 17:27 1,9 C 0,0 C 0,0 C 88 % 0 cb 1018,5 hPa 0,0 l/m 11,2 km/h (2 Bft) N 350 0 min 0,000 mm 0 W/m 0,1 C -1,3 C 11,2 km/h (2 Bft) 0,00 %
11.12.2010 17:32 1,9 C 0,0 C 0,0 C 88 % 0 cb 1018,5 hPa 0,0 l/m 10,3 km/h (2 Bft) W-SW 240 0 min 0,000 mm 0 W/m 0,1 C -1,1 C 10,3 km/h (2 Bft) 0,00 %
11.12.2010 17:37 1,9 C 0,0 C 0,0 C 88 % 0 cb 1018,5 hPa 0,0 l/m 16,3 km/h (3 Bft) NW 310 0 min 0,000 mm 0 W/m 0,1 C -2,3 C 16,3 km/h (3 Bft) 0,00 %
11.12.2010 17:42 1,9 C 0,0 C 0,0 C 88 % 0 cb 1019,5 hPa 0,0 l/m 11,2 km/h (2 Bft) W-SW 255 0 min 0,000 mm 0 W/m 0,1 C -1,3 C 11,2 km/h (2 Bft) 0,00 %
11.12.2010 17:47 1,9 C 0,0 C 0,0 C 88 % 0 cb 1019,5 hPa 0,0 l/m 10,9 km/h (2 Bft) NW 305 0 min 0,000 mm 0 W/m 0,1 C -1,3 C 10,9 km/h (2 Bft) 0,00 %
11.12.2010 17:52 1,9 C 0,0 C 0,0 C 88 % 0 cb 1019,5 hPa 0,0 l/m 10,3 km/h (2 Bft) SW 220 0 min 0,000 mm 0 W/m 0,1 C -1,1 C 10,3 km/h (2 Bft) 0,00 %
11.12.2010 17:57 1,9 C 0,0 C 0,0 C 88 % 0 cb 1018,5 hPa 0,0 l/m 9,1 km/h (2 Bft) N-NW 330 0 min 0,000 mm 0 W/m 0,1 C -0,8 C 9,1 km/h (2 Bft) 0,00 %
11.12.2010 18:02 1,9 C 0,0 C 0,0 C 88 % 0 cb 1018,5 hPa 0,0 l/m 10,9 km/h (2 Bft) W-SW 240 0 min 0,000 mm 0 W/m 0,1 C -1,3 C 10,9 km/h (2 Bft) 0,00 %
11.12.2010 18:07 1,9 C 0,0 C 0,0 C 88 % 0 cb 1018,5 hPa 0,0 l/m 12,7 km/h (3 Bft) NW 310 0 min 0,000 mm 0 W/m 0,1 C -1,6 C 12,7 km/h (3 Bft) 0,00 %
11.12.2010 18:12 1,9 C 0,0 C 0,0 C 88 % 0 cb 1018,5 hPa 0,0 l/m 11,2 km/h (2 Bft) W-NW 285 0 min 0,000 mm 0 W/m 0,1 C -1,3 C 11,2 km/h (2 Bft) 0,00 %
11.12.2010 18:17 1,9 C 0,0 C 0,0 C 88 % 0 cb 1018,5 hPa 0,0 l/m 7,9 km/h (2 Bft) W-NW 295 0 min 0,000 mm 0 W/m 0,1 C -0,5 C 7,9 km/h (2 Bft) 0,00 %
11.12.2010 18:22 1,9 C 0,0 C 0,0 C 88 % 0 cb 1018,5 hPa 0,0 l/m 10,6 km/h (2 Bft) W-NW 285 0 min 0,000 mm 0 W/m 0,1 C -1,2 C 10,6 km/h (2 Bft) 0,00 %
11.12.2010 18:27 1,9 C 0,0 C 0,0 C 88 % 0 cb 1018,5 hPa 0,0 l/m 6,1 km/h (2 Bft) SW 230 0 min 0,000 mm 0 W/m 0,1 C 0,1 C 6,1 km/h (2 Bft) 0,00 %
11.12.2010 18:32 1,9 C 0,0 C 0,0 C 88 % 0 cb 1018,5 hPa 0,0 l/m 9,4 km/h (2 Bft) W-NW 295 0 min 0,000 mm 0 W/m 0,1 C -0,9 C 9,4 km/h (2 Bft) 0,00 %
11.12.2010 18:37 1,9 C 0,0 C 0,0 C 88 % 0 cb 1018,5 hPa 0,0 l/m 9,1 km/h (2 Bft) W-SW 255 0 min 0,000 mm 0 W/m 0,1 C -0,8 C 9,1 km/h (2 Bft) 0,00 %
11.12.2010 18:42 1,9 C 0,0 C 0,0 C 88 % 0 cb 1018,5 hPa 0,0 l/m 11,2 km/h (2 Bft) NW 320 0 min 0,000 mm 0 W/m 0,1 C -1,3 C 11,2 km/h (2 Bft) 0,00 %
11.12.2010 18:47 1,9 C 0,0 C 0,0 C 88 % 0 cb 1018,5 hPa 0,0 l/m 9,4 km/h (2 Bft) W-SW 240 0 min 0,000 mm 0 W/m 0,1 C -0,9 C 9,4 km/h (2 Bft) 0,00 %
11.12.2010 18:52 1,9 C 0,0 C 0,0 C 88 % 0 cb 1018,5 hPa 0,0 l/m 7,6 km/h (2 Bft) S-SW 205 0 min 0,000 mm 0 W/m 0,1 C -0,4 C 7,6 km/h (2 Bft) 0,00 %
11.12.2010 18:57 1,9 C 0,0 C 0,0 C 88 % 0 cb 1018,5 hPa 0,0 l/m 8,5 km/h (2 Bft) N 5 0 min 0,000 mm 0 W/m 0,1 C -0,7 C 8,5 km/h (2 Bft) 0,00 %
11.12.2010 19:02 1,9 C 0,0 C 0,0 C 88 % 0 cb 1018,5 hPa 0,0 l/m 10,3 km/h (2 Bft) W-SW 245 0 min 0,000 mm 0 W/m 0,1 C -1,1 C 10,3 km/h (2 Bft) 0,00 %
11.12.2010 19:07 1,9 C 0,0 C 0,0 C 88 % 0 cb 1018,5 hPa 0,0 l/m 7,9 km/h (2 Bft) N-NW 330 0 min 0,000 mm 0 W/m 0,1 C -0,5 C 7,9 km/h (2 Bft) 0,00 %
11.12.2010 19:12 1,9 C 0,0 C 0,0 C 88 % 0 cb 1017,5 hPa 0,0 l/m 8,5 km/h (2 Bft) W-NW 290 0 min 0,000 mm 0 W/m 0,1 C -0,7 C 8,5 km/h (2 Bft) 0,00 %
11.12.2010 19:17 1,9 C 0,0 C 0,0 C 88 % 0 cb 1017,5 hPa 0,0 l/m 7,3 km/h (2 Bft) W-NW 290 0 min 0,000 mm 0 W/m 0,1 C -0,3 C 7,3 km/h (2 Bft) 0,00 %
11.12.2010 19:22 1,9 C 0,0 C 0,0 C 88 % 0 cb 1017,5 hPa 0,0 l/m 6,7 km/h (2 Bft) S 170 0 min 0,000 mm 0 W/m 0,1 C -0,1 C 6,7 km/h (2 Bft) 0,00 %
11.12.2010 19:27 1,9 C 0,0 C 0,0 C 88 % 0 cb 1018,5 hPa 0,0 l/m 5,4 km/h (1 Bft) W 265 0 min 0,000 mm 0 W/m 0,1 C 0,4 C 5,4 km/h (1 Bft) 0,00 %
11.12.2010 19:32 2,0 C 0,0 C 0,0 C 88 % 0 cb 1018,5 hPa 0,0 l/m 9,4 km/h (2 Bft) W-NW 300 0 min 0,000 mm 0 W/m 0,2 C -0,8 C 9,4 km/h (2 Bft) 0,00 %
11.12.2010 19:37 2,0 C 0,0 C 0,0 C 88 % 0 cb 1018,5 hPa 0,0 l/m 8,5 km/h (2 Bft) W 260 0 min 0,000 mm 0 W/m 0,2 C -0,5 C 8,5 km/h (2 Bft) 0,00 %
11.12.2010 19:42 2,0 C 0,0 C 0,0 C 88 % 0 cb 1017,5 hPa 0,0 l/m 11,2 km/h (2 Bft) S-SW 200 0 min 0,000 mm 0 W/m 0,2 C -1,2 C 11,2 km/h (2 Bft) 0,00 %
11.12.2010 19:47 2,0 C 0,0 C 0,0 C 88 % 0 cb 1017,5 hPa 0,0 l/m 9,4 km/h (2 Bft) NW 315 0 min 0,000 mm 0 W/m 0,2 C -0,8 C 9,4 km/h (2 Bft) 0,00 %
11.12.2010 19:52 2,0 C 0,0 C 0,0 C 88 % 0 cb 1017,5 hPa 0,0 l/m 6,1 km/h (2 Bft) W-NW 295 0 min 0,000 mm 0 W/m 0,2 C 0,2 C 6,1 km/h (2 Bft) 0,00 %
11.12.2010 19:57 2,0 C 0,0 C 0,0 C 88 % 0 cb 1018,5 hPa 0,0 l/m 6,4 km/h (2 Bft) W-SW 245 0 min 0,000 mm 0 W/m 0,2 C 0,1 C 6,4 km/h (2 Bft) 0,00 %
11.12.2010 20:02 1,9 C 0,0 C 0,0 C 88 % 0 cb 1018,5 hPa 0,0 l/m 5,4 km/h (1 Bft) S-SO 160 0 min 0,000 mm 0 W/m 0,1 C 0,4 C 5,4 km/h (1 Bft) 0,00 %
11.12.2010 20:07 2,0 C 0,0 C 0,0 C 88 % 0 cb 1018,5 hPa 0,0 l/m 4,8 km/h (1 Bft) NW 305 0 min 0,000 mm 0 W/m 0,2 C 0,8 C 4,8 km/h (1 Bft) 0,00 %
11.12.2010 20:12 2,0 C 0,0 C 0,0 C 88 % 0 cb 1017,5 hPa 0,0 l/m 6,1 km/h (2 Bft) W-SW 255 0 min 0,000 mm 0 W/m 0,2 C 0,2 C 6,1 km/h (2 Bft) 0,00 %
11.12.2010 20:17 2,0 C 0,0 C 0,0 C 88 % 0 cb 1017,5 hPa 0,0 l/m 6,7 km/h (2 Bft) W-NW 285 0 min 0,000 mm 0 W/m 0,2 C 0,0 C 6,7 km/h (2 Bft) 0,00 %
11.12.2010 20:22 2,0 C 0,0 C 0,0 C 88 % 0 cb 1017,5 hPa 0,0 l/m 9,7 km/h (2 Bft) S-SW 200 0 min 0,000 mm 0 W/m 0,2 C -0,9 C 9,7 km/h (2 Bft) 0,00 %
11.12.2010 20:27 2,0 C 0,0 C 0,0 C 88 % 0 cb 1017,5 hPa 0,0 l/m 5,4 km/h (1 Bft) W 270 0 min 0,000 mm 0 W/m 0,2 C 0,5 C 5,4 km/h (1 Bft) 0,00 %
11.12.2010 20:32 2,0 C 0,0 C 0,0 C 88 % 0 cb 1017,5 hPa 0,0 l/m 6,7 km/h (2 Bft) NW 310 0 min 0,000 mm 0 W/m 0,2 C 0,0 C 6,7 km/h (2 Bft) 0,00 %
11.12.2010 20:37 2,0 C 0,0 C 0,0 C 88 % 0 cb 1017,5 hPa 0,0 l/m 4,8 km/h (1 Bft) W 275 0 min 0,000 mm 0 W/m 0,2 C 0,8 C 4,8 km/h (1 Bft) 0,00 %
11.12.2010 20:42 2,0 C 0,0 C 0,0 C 88 % 0 cb 1017,5 hPa 0,0 l/m 6,7 km/h (2 Bft) NW 310 0 min 0,000 mm 0 W/m 0,2 C 0,0 C 6,7 km/h (2 Bft) 0,00 %
11.12.2010 20:47 2,0 C 0,0 C 0,0 C 88 % 0 cb 1017,5 hPa 0,3 l/m 4,5 km/h (1 Bft) W-SW 240 0 min 0,000 mm 0 W/m 0,2 C 2,0 C 4,5 km/h (1 Bft) 0,00 %
11.12.2010 20:52 2,0 C 0,0 C 0,0 C 88 % 0 cb 1017,5 hPa 0,0 l/m 6,7 km/h (2 Bft) W-NW 300 0 min 0,000 mm 0 W/m 0,2 C 0,0 C 6,7 km/h (2 Bft) 0,00 %
11.12.2010 20:57 1,9 C 0,0 C 0,0 C 88 % 0 cb 1017,5 hPa 0,0 l/m 7,0 km/h (2 Bft) W 265 0 min 0,000 mm 0 W/m 0,1 C -0,2 C 7,0 km/h (2 Bft) 0,00 %
11.12.2010 21:02 2,0 C 0,0 C 0,0 C 88 % 0 cb 1017,5 hPa 0,0 l/m 7,3 km/h (2 Bft) N 350 0 min 0,000 mm 0 W/m 0,2 C -0,2 C 7,3 km/h (2 Bft) 0,00 %
11.12.2010 21:07 2,0 C 0,0 C 0,0 C 88 % 0 cb 1017,5 hPa 0,0 l/m 10,3 km/h (2 Bft) W-SW 250 0 min 0,000 mm 0 W/m 0,2 C -1,0 C 10,3 km/h (2 Bft) 0,00 %
11.12.2010 21:12 2,0 C 0,0 C 0,0 C 88 % 0 cb 1017,5 hPa 0,0 l/m 8,8 km/h (2 Bft) W-SW 240 0 min 0,000 mm 0 W/m 0,2 C -0,6 C 8,8 km/h (2 Bft) 0,00 %
11.12.2010 21:17 2,0 C 0,0 C 0,0 C 88 % 0 cb 1017,5 hPa 0,0 l/m 7,9 km/h (2 Bft) W-SW 240 0 min 0,000 mm 0 W/m 0,2 C -0,4 C 7,9 km/h (2 Bft) 0,00 %
11.12.2010 21:22 2,0 C 0,0 C 0,0 C 88 % 0 cb 1017,5 hPa 0,0 l/m 10,6 km/h (2 Bft) W-NW 295 0 min 0,000 mm 0 W/m 0,2 C -1,1 C 10,6 km/h (2 Bft) 0,00 %
11.12.2010 21:27 2,0 C 0,0 C 0,0 C 88 % 0 cb 1017,5 hPa 0,0 l/m 10,9 km/h (2 Bft) SW 215 0 min 0,000 mm 0 W/m 0,2 C -1,1 C 10,9 km/h (2 Bft) 0,00 %
11.12.2010 21:32 2,0 C 0,0 C 0,0 C 88 % 0 cb 1017,5 hPa 0,0 l/m 3,6 km/h (1 Bft) NW 320 0 min 0,000 mm 0 W/m 0,2 C 2,0 C 3,6 km/h (1 Bft) 0,00 %
11.12.2010 21:37 2,0 C 0,0 C 0,0 C 88 % 0 cb 1017,5 hPa 0,0 l/m 4,2 km/h (1 Bft) W 280 0 min 0,000 mm 0 W/m 0,2 C 2,0 C 4,2 km/h (1 Bft) 0,00 %
11.12.2010 21:42 2,0 C 0,0 C 0,0 C 88 % 0 cb 1017,5 hPa 0,0 l/m 5,7 km/h (1 Bft) S-SW 205 0 min 0,000 mm 0 W/m 0,2 C 0,4 C 5,7 km/h (1 Bft) 0,00 %
11.12.2010 21:47 2,0 C 0,0 C 0,0 C 88 % 0 cb 1017,5 hPa 0,0 l/m 10,6 km/h (2 Bft) N 0 0 min 0,000 mm 0 W/m 0,2 C -1,1 C 10,6 km/h (2 Bft) 0,00 %
11.12.2010 21:52 2,0 C 0,0 C 0,0 C 88 % 0 cb 1017,5 hPa 0,0 l/m 7,3 km/h (2 Bft) W 265 0 min 0,000 mm 0 W/m 0,2 C -0,2 C 7,3 km/h (2 Bft) 0,00 %
11.12.2010 21:57 2,0 C 0,0 C 0,0 C 88 % 0 cb 1016,5 hPa 0,0 l/m 10,0 km/h (2 Bft) NW 320 0 min 0,000 mm 0 W/m 0,2 C -0,9 C 10,0 km/h (2 Bft) 0,00 %
11.12.2010 22:02 2,0 C 0,0 C 0,0 C 88 % 0 cb 1016,5 hPa 0,0 l/m 7,9 km/h (2 Bft) W-SW 245 0 min 0,000 mm 0 W/m 0,2 C -0,4 C 7,9 km/h (2 Bft) 0,00 %
11.12.2010 22:07 2,0 C 0,0 C 0,0 C 88 % 0 cb 1016,5 hPa 0,0 l/m 7,0 km/h (2 Bft) W 265 0 min 0,000 mm 0 W/m 0,2 C -0,1 C 7,0 km/h (2 Bft) 0,00 %
11.12.2010 22:12 2,0 C 0,0 C 0,0 C 88 % 0 cb 1016,5 hPa 0,0 l/m 7,6 km/h (2 Bft) W 280 0 min 0,000 mm 0 W/m 0,2 C -0,3 C 7,6 km/h (2 Bft) 0,00 %
11.12.2010 22:17 2,0 C 0,0 C 0,0 C 88 % 0 cb 1016,5 hPa 0,3 l/m 6,4 km/h (2 Bft) W-SW 255 0 min 0,000 mm 0 W/m 0,2 C 0,1 C 6,4 km/h (2 Bft) 0,00 %
11.12.2010 22:22 2,0 C 0,0 C 0,0 C 88 % 0 cb 1016,5 hPa 0,0 l/m 6,4 km/h (2 Bft) W-SW 255 0 min 0,000 mm 0 W/m 0,2 C 0,1 C 6,4 km/h (2 Bft) 0,00 %
11.12.2010 22:27 2,0 C 0,0 C 0,0 C 88 % 0 cb 1016,5 hPa 0,0 l/m 7,9 km/h (2 Bft) NW 325 0 min 0,000 mm 0 W/m 0,2 C -0,4 C 7,9 km/h (2 Bft) 0,00 %
11.12.2010 22:32 2,0 C 0,0 C 0,0 C 88 % 0 cb 1016,5 hPa 0,0 l/m 6,7 km/h (2 Bft) W 280 0 min 0,000 mm 0 W/m 0,2 C 0,0 C 6,7 km/h (2 Bft) 0,00 %
11.12.2010 22:37 2,0 C 0,0 C 0,0 C 88 % 0 cb 1016,5 hPa 0,0 l/m 5,7 km/h (1 Bft) NO 45 0 min 0,000 mm 0 W/m 0,2 C 0,4 C 5,7 km/h (1 Bft) 0,00 %
11.12.2010 22:42 2,0 C 0,0 C 0,0 C 88 % 0 cb 1016,5 hPa 0,0 l/m 5,7 km/h (1 Bft) W-NW 290 0 min 0,000 mm 0 W/m 0,2 C 0,4 C 5,7 km/h (1 Bft) 0,00 %
11.12.2010 22:47 2,0 C 0,0 C 0,0 C 88 % 0 cb 1016,5 hPa 0,0 l/m 5,4 km/h (1 Bft) W 265 0 min 0,000 mm 0 W/m 0,2 C 0,5 C 5,4 km/h (1 Bft) 0,00 %
11.12.2010 22:52 2,0 C 0,0 C 0,0 C 88 % 0 cb 1016,5 hPa 0,0 l/m 7,3 km/h (2 Bft) S 175 0 min 0,000 mm 0 W/m 0,2 C -0,2 C 7,3 km/h (2 Bft) 0,00 %
11.12.2010 22:57 2,0 C 0,0 C 0,0 C 88 % 0 cb 1016,5 hPa 0,0 l/m 5,4 km/h (1 Bft) NW 320 0 min 0,000 mm 0 W/m 0,2 C 0,5 C 5,4 km/h (1 Bft) 0,00 %
11.12.2010 23:02 2,0 C 0,0 C 0,0 C 88 % 0 cb 1016,5 hPa 0,0 l/m 3,6 km/h (1 Bft) W-NW 290 0 min 0,000 mm 0 W/m 0,2 C 2,0 C 3,6 km/h (1 Bft) 0,00 %
11.12.2010 23:07 2,0 C 0,0 C 0,0 C 88 % 0 cb 1016,5 hPa 0,0 l/m 6,7 km/h (2 Bft) W-SW 255 0 min 0,000 mm 0 W/m 0,2 C 0,0 C 6,7 km/h (2 Bft) 0,00 %
11.12.2010 23:12 2,1 C 0,0 C 0,0 C 88 % 0 cb 1016,5 hPa 0,0 l/m 7,6 km/h (2 Bft) W-NW 290 0 min 0,000 mm 0 W/m 0,3 C -0,2 C 7,6 km/h (2 Bft) 0,00 %
11.12.2010 23:17 2,0 C 0,0 C 0,0 C 88 % 0 cb 1016,5 hPa 0,0 l/m 5,4 km/h (1 Bft) W-NW 295 0 min 0,000 mm 0 W/m 0,2 C 0,5 C 5,4 km/h (1 Bft) 0,00 %
11.12.2010 23:22 2,0 C 0,0 C 0,0 C 88 % 0 cb 1016,5 hPa 0,0 l/m 7,3 km/h (2 Bft) W 270 0 min 0,000 mm 0 W/m 0,2 C -0,2 C 7,3 km/h (2 Bft) 0,00 %
11.12.2010 23:27 2,0 C 0,0 C 0,0 C 88 % 0 cb 1015,5 hPa 0,0 l/m 7,3 km/h (2 Bft) W-NW 300 0 min 0,000 mm 0 W/m 0,2 C -0,2 C 7,3 km/h (2 Bft) 0,00 %
11.12.2010 23:32 2,0 C 0,0 C 0,0 C 88 % 0 cb 1015,5 hPa 0,0 l/m 5,1 km/h (1 Bft) N-NW 330 0 min 0,000 mm 0 W/m 0,2 C 0,6 C 5,1 km/h (1 Bft) 0,00 %
11.12.2010 23:37 2,0 C 0,0 C 0,0 C 88 % 0 cb 1015,5 hPa 0,0 l/m 0,9 km/h (0 Bft) W-NW 300 0 min 0,000 mm 0 W/m 0,2 C 2,0 C 0,9 km/h (0 Bft) 0,00 %
11.12.2010 23:42 2,0 C 0,0 C 0,0 C 88 % 0 cb 1015,5 hPa 0,0 l/m 3,9 km/h (1 Bft) N-NW 345 0 min 0,000 mm 0 W/m 0,2 C 2,0 C 3,9 km/h (1 Bft) 0,00 %
11.12.2010 23:47 2,1 C 0,0 C 0,0 C 88 % 0 cb 1015,5 hPa 0,0 l/m 8,5 km/h (2 Bft) W-NW 300 0 min 0,000 mm 0 W/m 0,3 C -0,4 C 8,5 km/h (2 Bft) 0,00 %
11.12.2010 23:52 2,1 C 0,0 C 0,0 C 88 % 0 cb 1015,5 hPa 0,0 l/m 10,0 km/h (2 Bft) W-SW 245 0 min 0,000 mm 0 W/m 0,3 C -0,8 C 10,0 km/h (2 Bft) 0,00 %
11.12.2010 23:57 2,1 C 0,0 C 0,0 C 88 % 0 cb 1015,5 hPa 0,0 l/m 10,0 km/h (2 Bft) W 270 0 min 0,000 mm 0 W/m 0,3 C -0,8 C 10,0 km/h (2 Bft) 0,00 %
_ Min-Zeit 01:11 00:01 00:01 09:11 00:01 23:27 - 23:37 - - - - - 01:11 01:31 23:37 00:01
Minimum _ 0,8 C 0,0 C 0,0 C 87 % 0 cb 1015,5 hPa - 0,9 km/h (0 Bft) - - - - - -0,8 C -4,7 C 0,9 km/h (0 Bft) 0,00 %
_ Max-Zeit 10:11 00:01 00:01 00:01 00:01 00:01 06:36 01:31 - - 00:01 00:01 00:01 15:16 20:47 01:31 00:01
Maximum _ 2,2 C 0,0 C 0,0 C 89 % 0 cb 1023,5 hPa 0,6 l/m 24,5 km/h
W-SW (4 Bft)
- - 0 min 0,000 mm 0 W/m 0,3 C 2,0 C 24,5 km/h
W-SW (4 Bft)
0,00 %
Durchschnitt _ 1,7 C 0,0 C 0,0 C 88 % 0 cb 1019,9 hPa #4,1 l/m 12,3 km/h (3 Bft) W - #0 min. #0,000 mm 0 W/m -0,0 C -1,7 C 12,3 km/h (3 Bft) 0,00 %
Wetterstation Gdesweiler